Location: Nakusp
(50.2330°N, 117.8000°W)
Time: 03:52:14
(UTC-07:00)

Daily predictions for brighter satellites

Satellite Brightness Start Highest point End
(mag) Time Altitude Azimuth Time Altitude Azimuth Time Altitude Azimuth
Terra 4.0 00:03:09 11° SW 00:06:07 17° W 00:09:18 10° NW
Cosmos 1536 3.9 00:06:41 29° ESE 00:07:19 30° E 00:10:54 10° NNE
Cosmos 1812 4.3 00:04:34 10° NNW 00:07:54 27° W 00:09:13 22° WSW
CZ-2C R/B 3.0 00:06:47 37° S 00:08:52 76° WSW 00:13:49 10° NNW
Okean 1 4.1 00:10:25 10° NNW 00:14:15 43° W 00:15:18 34° SW
Cosmos 2227 Rocket 2.2 00:09:54 10° NNW 00:15:33 75° WSW 00:17:55 36° SSE
Cosmos 407 Rocket 4.0 00:11:09 10° NNW 00:16:24 56° ENE 00:19:05 28° SE
Gbstr 26 Del rocket 2.8 00:14:08 10° WNW 00:18:16 54° SSW 00:18:24 54° SSW
Cosmos 2219 4.5 00:13:29 10° NW 00:18:21 29° WSW 00:20:40 22° SW
Okean 1 Rocket 4.0 00:18:40 30° ESE 00:19:34 33° E 00:23:28 10° NNE
CENTAUR R/B 3.8 00:14:13 10° WSW 00:20:24 45° NNW 00:27:28 10° NE
CZ-2C R/B 2.5 00:16:14 10° NNE 00:21:27 83° ESE 00:23:35 37° S
Meteor 1-11 Rocket 4.0 00:19:01 35° SSE 00:21:33 63° E 00:27:26 10° NNE
Meteor 1-23 Rocket 4.5 00:17:54 10° N 00:23:34 61° ENE 00:26:08 32° SE
Cosmos 2315 Rocket 4.1 00:17:56 10° N 00:24:08 68° ENE 00:27:06 32° SSE
Cosmos 2266 Rocket 4.0 00:22:06 34° S 00:24:58 75° E 00:31:06 10° NNE
BREEZE M DEB (TANK) 2.2 00:21:53 10° W 00:26:10 71° SW 00:26:10 71° SW
Lacrosse 5 rocket 2.7 00:24:16 10° W 00:27:42 36° NNW 00:31:17 10° NE
CZ-4C R/B 3.5 00:32:46 43° E 00:33:06 45° ENE 00:36:20 10° N
Cosmos 2263 Rocket 4.5 00:29:18 10° N 00:33:32 21° NE 00:37:46 10° E
Cosmos 1633 3.4 00:33:56 35° WSW 00:34:46 41° WNW 00:38:12 10° N
Meteor 2-4 Rocket 3.5 00:29:57 10° NNW 00:35:20 85° WSW 00:37:22 40° S
Cosmos 2292 4.4 00:32:25 10° NNW 00:35:27 58° W 00:35:27 58° W
Cosmos 1656 4.1 00:35:12 36° SSE 00:36:45 46° ESE 00:42:01 10° NE
CZ-4B R/B 2.7 00:37:59 30° E 00:38:47 34° ENE 00:42:01 10° N
Cosmos 2369 3.8 00:37:12 38° S 00:39:17 62° ESE 00:44:56 10° NE
Meteor 1-5 Rocket 4.5 00:41:41 35° SSE 00:43:48 56° E 00:49:13 10° NNE
APEX 4.4 00:39:49 10° NW 00:43:56 31° WSW 00:44:22 30° WSW
ALOS 2 3.2 00:43:07 37° SW 00:44:11 45° W 00:48:25 10° NNW
Cosmos 1689 Rocket 3.5 00:43:53 31° E 00:44:19 33° ENE 00:47:17 10° N
Cosmos 2056 Rocket 3.7 00:42:54 40° SSE 00:44:20 53° ESE 00:49:19 10° NNE
CZ-4C R/B 3.1 00:37:31 10° NW 00:44:21 70° NE 00:51:52 11° SE
Cosmos 1238 Rocket 4.3 00:40:58 10° N 00:45:41 45° ENE 00:48:26 26° SE
Cosmos 1980 Rocket 3.5 00:45:28 22° SE 00:46:55 25° ESE 00:51:25 10° NE
Cosmos 1025 Rocket 3.1 00:45:20 10° N 00:49:42 69° ENE 00:50:52 46° SE
BREEZE-M (TANK) 2.9 00:42:31 10° W 00:51:15 67° SSW 00:52:15 44° SE
Cosmos 2151 Rocket 4.3 00:55:26 31° SW 00:57:03 45° WNW 01:01:21 10° N
Cosmos 1975 4.4 00:59:20 22° ESE 01:00:17 24° E 01:03:35 10° NE
H-2A R/B 3.9 01:01:04 10° NE 01:04:26 24° E 01:05:11 23° ESE
SAR-Lupe-2 3.6 01:05:51 57° SE 01:06:23 68° ENE 01:09:58 10° N
Cosmos 2297 Rocket 3.0 01:05:06 10° NW 01:10:16 37° WSW 01:11:50 31° SW
Cosmos 1452 Rocket 4.3 01:09:08 32° SE 01:10:44 39° ESE 01:15:39 10° NE
GP-B 3.6 01:07:51 10° N 01:12:11 51° W 01:13:27 38° SW
Nadezhda 2 Rocket 4.4 01:09:30 35° SSW 01:12:16 83° W 01:18:25 10° N
Cosmos 1697 Rocket 2.8 01:12:39 38° S 01:14:39 62° ESE 01:20:14 10° NE
Cosmos 1892 Rocket 3.9 01:11:01 10° N 01:15:29 60° ENE 01:17:02 37° SE
Spot 2 4.0 01:13:05 10° N 01:17:11 70° WNW 01:18:11 48° SW
Cosmos 1300 Rocket 4.1 01:16:24 35° SW 01:17:46 48° WNW 01:22:01 10° N
NOSS 3-1 (C) 4.4 01:16:27 25° SE 01:18:10 29° ESE 01:23:37 10° ENE
Cosmos 921 Rocket 2.9 01:18:20 53° S 01:19:17 77° ESE 01:23:32 10° NNE
ISS -3.6 01:17:43 10° W 01:20:58 68° N 01:24:14 10° E
ATLAS CENTAUR R/B 2.8 01:18:21 13° W 01:21:19 31° NW 01:24:43 10° NNE
Nadezhda 1 Rocket 4.2 01:16:37 10° N 01:22:41 64° ENE 01:26:06 27° SSE
Okean 2 3.5 01:22:17 10° NNW 01:26:24 60° W 01:27:10 49° SW
SL-16 R/B 4.0 01:26:08 15° SE 01:28:27 20° E 01:32:24 10° NE
Cosmos 614 Rocket 3.9 01:25:15 10° NNW 01:30:22 87° ENE 01:32:35 35° SSE
Cosmos 1371 Rocket 4.5 01:28:38 28° SW 01:31:16 55° WNW 01:36:24 10° NNE
Landsat 5 3.4 01:33:32 51° SW 01:34:02 56° W 01:37:51 10° NNW
Cosmos 2322 Rocket 3.8 01:35:01 18° SE 01:37:26 23° ESE 01:41:49 10° NE
Mayak -0.1 01:34:43 10° N 01:38:35 36° WNW 01:40:07 27° WSW
Genesis I 3.2 01:35:09 10° NW 01:39:06 61° SW 01:39:34 56° SSW
Cosmos 2278 4.2 01:36:03 23° SW 01:39:27 55° NW 01:45:04 10° NNE
Cosmos 1420 Rocket 4.5 01:38:47 33° SSE 01:40:39 48° ESE 01:45:39 10° NNE
Cosmos 1666 4.3 01:42:14 22° ESE 01:43:29 26° E 01:46:45 10° NNE
Cosmos 1536 4.3 01:42:25 23° WSW 01:43:45 28° WNW 01:47:18 10° N
GRACE-1 4.2 01:45:27 64° NNE 01:45:27 64° NNE 01:47:52 10° N
Cosmos 676 Rocket 4.5 01:40:17 10° NW 01:45:15 45° WSW 01:46:45 35° SSW
GRACE-2 4.2 01:45:44 64° NNE 01:45:44 64° NNE 01:48:09 10° N
SL-16 R/B 4.0 01:42:51 10° ESE 01:48:22 34° ENE 01:53:53 10° N
Cosmos 2227 4.1 01:45:37 10° NNW 01:51:13 71° WSW 01:53:56 31° S
Cosmos 1544 Rocket 3.6 01:50:16 42° S 01:51:42 75° E 01:56:09 10° NNE
USA 234 3.9 01:47:08 10° ENE 01:53:10 38° SE 01:55:43 28° S
Cosmos 1461 2.9 01:49:23 10° NW 01:53:41 79° SW 01:55:38 33° SSE
Resurs 1-4 Rocket 4.3 01:53:59 10° NE 01:57:18 16° E 02:00:34 10° SE
Okean 1 Rocket 4.4 01:55:51 22° WSW 01:57:29 29° WNW 02:01:18 10° N
Cosmos 2227 Rocket 4.1 01:56:03 10° WNW 01:58:38 13° W 01:59:42 13° WSW
Cosmos 1066 Rocket 4.1 01:54:33 10° NNW 01:59:57 68° W 02:02:17 34° S
Cosmos 1741 Rocket 3.9 01:54:49 10° NNW 02:00:04 82° WSW 02:02:45 30° SSE
BREEZE-M DEB (TANK) 1.9 02:02:54 55° WSW 02:03:25 76° S 02:09:08 10° E
Cosmos 1140 Rocket 3.9 01:59:09 10° NW 02:04:04 44° WSW 02:05:40 34° SSW
Cosmos 1745 Rocket 4.0 02:02:15 31° SSW 02:05:25 79° W 02:11:37 10° N
Lacrosse 5 rocket 3.2 02:04:13 10° WNW 02:07:37 30° N 02:11:11 10° ENE
Cosmos 397 4.4 02:03:49 10° NW 02:07:55 82° SW 02:10:56 21° SSE
SWAS 4.4 02:03:37 10° NNW 02:07:55 90° NNE 02:10:06 29° SSE
Cosmos 839 Rocket 4.0 02:04:58 30° SSW 02:08:09 71° ESE 02:14:23 10° NE
Cosmos 1455 Rocket 3.0 02:06:45 41° SSW 02:08:16 87° W 02:12:40 10° N
Cosmos 1842 4.0 02:04:58 10° N 02:08:44 47° ENE 02:10:45 24° SE
CZ-4B R/B 3.2 02:11:34 20° W 02:11:34 20° W 02:14:15 10° NW
Cosmos 405 2.9 02:13:42 52° S 02:14:28 87° E 02:18:01 10° NNE
ADEOS Rocket 3.8 02:08:28 10° NNE 02:14:34 43° E 02:18:31 19° SSE
Cosmos 220 Rocket 4.5 02:11:19 10° NNW 02:15:30 57° ENE 02:18:44 16° SE
Cosmos 1689 Rocket 4.3 02:16:41 17° W 02:16:41 17° W 02:18:34 10° NW
CZ-2D R/B 3.9 02:13:14 10° NE 02:17:41 24° E 02:22:05 10° SE
USA 229 DEB 3.9 02:13:13 20° SW 02:18:09 73° NW 02:25:12 10° NE
USA 229 3.8 02:13:20 20° SW 02:18:14 73° NW 02:25:17 10° NE
Cosmos 2263 Rocket 2.3 02:12:41 10° NNW 02:18:25 78° ENE 02:24:05 10° SSE
Cosmos 1743 2.6 02:18:19 43° S 02:19:31 89° ESE 02:23:25 10° N
SL-08 R/B 3.6 02:16:31 20° SSE 02:19:41 64° ENE 02:24:15 10° N
NOSS 3-1 (A) 3.7 02:20:54 28° S 02:23:56 56° ESE 02:30:25 10° NE
Cosmos 44 3.5 02:19:53 10° NW 02:24:13 61° NE 02:28:36 10° SE
PSLV R/B 4.0 02:19:58 10° N 02:24:41 65° WNW 02:26:53 31° SW
PSLV R/B 3.9 02:27:41 33° S 02:29:29 71° WSW 02:33:44 10° NNW
Cosmos 2360 Rocket 3.8 02:25:56 13° SSE 02:29:44 24° ESE 02:34:11 10° NE
Cosmos 1500 4.5 02:29:16 24° WSW 02:30:27 30° WNW 02:33:53 10° N
Cosmos 1980 Rocket 2.4 02:27:13 25° SW 02:30:29 64° WNW 02:36:06 10° NNE
CZ-4C R/B 3.4 02:26:20 10° NW 02:32:48 38° WSW 02:36:57 23° S
AQUA 4.5 02:30:01 10° NNE 02:34:38 48° E 02:37:34 21° SSE
ATLAS CENTAUR R/B 4.2 02:22:49 10° WNW 02:35:45 52° N 02:40:17 10° ENE
Cosmos 1975 3.9 02:35:09 26° WSW 02:36:38 35° WNW 02:40:24 10° N
Cosmos 1602 Rocket 3.7 02:33:13 10° NNW 02:37:38 60° W 02:39:35 31° SSW
Cosmos 1844 Rocket 4.4 02:33:34 10° NNW 02:38:42 34° NE 02:43:49 10° ESE
Cosmos 1437 Rocket 2.8 02:38:08 32° S 02:39:58 83° E 02:44:08 10° NNE
H-2A R/B 3.4 02:36:19 10° N 02:40:06 36° WNW 02:41:48 24° WSW
ATLAS 3B R/B 3.6 02:40:55 10° NW 02:47:39 51° NE 02:54:02 10° ESE
Cosmos 1707 4.2 02:52:02 10° N 02:55:39 35° ENE 02:59:13 10° SE
ISS -3.8 02:54:15 10° WNW 02:57:26 53° SSW 03:00:38 10° SE
Helios 1A Rocket 3.1 02:53:40 10° N 02:57:40 59° WNW 02:59:42 27° SW
Cosmos 1697 Rocket 4.1 02:54:22 11° WSW 02:59:03 30° NW 03:03:59 10° NNE
ATLAS CENTAUR R/B 4.2 03:00:14 10° NNW 03:01:25 11° NNW 03:02:34 10° N
Iridium 4 Rocket 4.4 02:58:29 10° SSE 03:04:08 53° E 03:09:34 10° NNE
UNK 3.7 03:00:25 14° SSE 03:04:25 88° WSW 03:09:05 10° NNW
Cosmos 44 Rocket 3.2 03:01:18 10° NW 03:05:57 60° SW 03:10:37 10° SSE
ADEOS 4.4 03:01:21 10° NNE 03:06:22 44° E 03:11:07 11° S
Meteor 1-4 Rocket 3.2 03:04:31 19° SSE 03:06:47 48° E 03:10:15 10° NNE
NOSS 3-1 (C) 3.7 03:03:50 18° SW 03:08:26 70° NW 03:15:16 10° NE
SL-16 R/B 2.2 03:08:00 21° SW 03:11:53 80° WNW 03:17:38 10° NNE
Cosmos 1607 4.1 03:05:32 10° NW 03:12:00 82° NE 03:18:29 10° SE
IRS-1D 3.8 03:09:27 10° NNE 03:14:23 62° ESE 03:18:33 14° S
Spot 4 Rocket 4.3 03:10:19 10° NNE 03:15:29 67° ESE 03:19:49 15° S
Cosmos 1606 Rocket 3.8 03:12:35 17° S 03:15:59 69° E 03:20:26 10° NNE
Cosmos 1709 Rocket 4.4 03:12:08 20° SW 03:16:17 50° WNW 03:22:14 10° N
Meteor 2-9 Rocket 4.4 03:12:50 19° SSW 03:17:02 69° WNW 03:22:56 10° N
Cosmos 1666 4.0 03:17:12 19° WSW 03:19:04 29° WNW 03:22:30 10° N
Cosmos 1110 Rocket 4.0 03:15:25 20° SSW 03:19:05 85° WNW 03:24:18 10° NNE
Cosmos 2322 Rocket 2.3 03:16:49 19° SW 03:20:58 70° WNW 03:26:42 10° NNE
Cosmos 1503 Rocket 4.4 03:20:41 10° NNW 03:25:58 70° ENE 03:31:18 10° SSE
Cosmos 1340 Rocket 3.9 03:25:46 10° N 03:29:37 44° ENE 03:33:25 10° SE
SL-16 R/B 2.7 03:25:41 10° S 03:31:44 56° W 03:37:55 10° NNW
Cosmos 1825 Rocket 4.0 03:30:11 10° NNW 03:34:24 44° W 03:37:41 15° SSW
Cosmos 1758 Rocket 3.7 03:31:26 10° NNW 03:35:42 56° W 03:39:31 12° S
USA 234 3.3 03:30:02 10° ENE 03:36:37 86° NNW 03:43:03 11° WSW
ADEOS II 4.3 03:32:45 10° NE 03:36:48 22° E 03:40:50 10° SE
Resurs 1-4 Rocket 2.1 03:32:30 10° NNE 03:37:49 83° WNW 03:42:33 13° SSW
IRS-1C 4.3 03:33:06 10° N 03:38:22 60° WNW 03:42:48 15° SW
ARIANE 5 R/B 2.5 03:37:18 10° NNE 03:42:27 86° WNW 03:47:18 12° SSW
Cosmos 1184 Rocket 2.7 03:43:19 10° NNW 03:46:41 87° W 03:49:59 10° S
Lacrosse 5 rocket 1.7 03:43:27 10° NW 03:47:19 64° NNE 03:51:27 10° ESE
UNKNOWN OBJECT B 3.1 03:45:04 10° NNE 03:48:51 63° E 03:52:41 10° S
Cosmos 2184 Rocket 4.1 03:44:55 12° SSW 03:50:35 64° WNW 03:56:44 10° N
Cosmos 1271 Rocket 3.4 03:47:08 10° S 03:51:04 56° E 03:54:59 10° NNE
Cosmos 2228 3.0 03:50:42 10° S 03:54:59 88° WNW 03:59:18 10° N
CZ-2D R/B 2.4 03:52:44 10° N 03:58:09 61° WNW 04:03:26 10° SSW
CZ-3A R/B 3.7 03:46:12 10° WNW 03:59:44 84° SSW 04:05:05 10° SE
Cosmos 389 Rocket 3.7 03:56:38 10° SSE 04:00:00 41° E 04:03:25 10° NNE
ADEOS Rocket 3.8 03:54:05 10° N 04:00:05 40° WNW 04:05:27 10° SW
Cosmos 2263 Rocket 3.5 03:57:40 10° NW 04:01:43 20° W 04:05:41 10° SW
Cosmos 44 4.3 04:01:43 10° WNW 04:05:03 21° WSW 04:08:27 10° SSW
In-Cosmos 22 4.3 04:03:28 10° N 04:08:53 78° ENE 04:14:11 10° SSE
ATLAS 2AS CENTAUR R/B 3.3 04:02:00 10° SSW 04:09:44 68° SE 04:17:50 10° NE
Aureole 2 Rocket 4.1 04:08:39 10° S 04:12:30 37° ESE 04:16:14 10° NE
Cosmos 2360 Rocket 2.4 04:07:42 10° SW 04:13:16 66° WNW 04:18:55 10° NNE
NOSS 3-1 (A) 4.4 04:09:11 10° WSW 04:15:04 46° NNW 04:21:46 10° NE
Cosmos 2058 Rocket 3.5 04:10:58 10° SSW 04:15:22 51° WNW 04:19:47 10° N
Nadezhda 3 Rocket 4.2 04:09:32 10° NNW 04:15:37 58° W 04:21:45 10° S
Cosmos 1980 Rocket 4.2 04:11:52 10° WNW 04:15:38 18° NW 04:19:25 10° N
COSMOS 2428 3.0 04:10:30 10° SSW 04:16:12 69° ESE 04:21:55 10° NNE
Cosmos 2219 Rocket 3.2 04:12:14 10° S 04:17:37 45° ESE 04:23:01 10° NE
Intercosmos 24 4.3 04:14:21 10° S 04:18:18 86° E 04:23:51 10° N
Cosmos 2237 Rocket 4.0 04:16:10 10° SSE 04:20:53 28° ESE 04:25:36 10° NE
NOSS 2-3 (E) 4.1 04:16:50 10° SW 04:21:43 88° NW 04:27:39 10° NE
MOS 1 Rocket 3.6 04:17:19 10° N 04:21:47 47° WNW 04:26:01 10° SW
Cosmos 1844 Rocket 2.8 04:17:21 10° NW 04:22:53 54° WSW 04:28:22 10° S
MOZ.5/SAFIR/RUBIN 5/SL-8 4.5 04:20:08 10° SSW 04:24:22 35° W 04:28:38 10° NNW
BREEZE M DEB (TANK) 1.8 04:21:07 10° W 04:24:34 77° S 04:26:39 10° E
Okean O Rocket 3.2 04:22:08 10° NNE 04:26:16 36° E 04:30:23 10° SSE
Cosmos 962 Rocket 4.5 04:20:49 10° SSW 04:26:55 80° W 04:33:06 10° N
SL-8 Rocket 4.4 04:21:11 10° S 04:27:27 69° E 04:33:44 10° NNE
Cosmos 1544 3.5 04:23:53 10° S 04:27:34 66° E 04:31:17 10° NNE
Cosmos 1812 Rocket 3.8 04:23:15 10° S 04:27:35 73° E 04:31:57 10° NNE
Cosmos 972 Rocket 3.9 04:24:09 10° SSW 04:29:02 77° WNW 04:34:08 10° NNE
Okean 3 Rocket 4.4 04:25:15 10° N 04:29:37 56° ENE 04:34:00 10° SSE
Meteor 2-5 Rocket 4.4 04:26:13 10° NNW 04:31:20 37° W 04:36:31 10° SSW
